STARLINK-31737 (59537 NORAD) Tracking and Keplerian Element Data

This shows tracking and keplerian element data for the satellite.

Feedback or suggestion? Click here.




ElementValue
Catalog59537
NameSTARLINK-31737
Epoch Orbit780
Epoch Day159.91622119
Epoch Year2024
RAAN28.2718
Inclination43.0004
Eccentricity0.0001834
Argument of Perigee275.3717
Mean Anonmoly84.693
Mean Motion15.40724941
Decay Rate0.00033794
L11 59537U 24074D 24159.91622119 .00033794 00000+0 81200-3 0 9997
L22 59537 43.0004 28.2718 0001834 275.3717 84.6930 15.40724941 7800



Live tracking and technical data element details for STARLINK-31737 (NORAD 59537). STARLINK-31737 can be tracked NOW for your location showing map with azimuth and elevation plus other details from your city location.







IsCatalogInMostPopularTable: catalog: 59537, numindb: 11
Update: records affected: 1



GetName: 59537 STARLINK-31737

Hit Count: updated at: Fri, 14 Jun 2024 19:36:53 GMT